{"data":{"norad_id":53449,"intl_designator":"2022-098F","name":"DONGPO 05","alt_names":[],"object_type":"PAYLOAD","status":"ACTIVE","operator":null,"country":"PRC","launch_date":"2022-08-10","launch_site_code":"TAISC","launch_vehicle":null,"mission":null,"orbit_class":"UNKNOWN","rcs_meters":null,"size_class":null,"mass_kg":null,"dimensions":null,"purposes":[],"wikipedia_slug":null,"has_3d_model":false,"image_url":null,"decayed_at":null,"tle_current":{"epoch":"2026-05-24T21:17:44.064384Z","epoch_age_seconds":81462,"freshness":"FRESH","line1":"1 53449U 22098F   26144.88731556  .00099107  00000+0  68616-3 0  9991","line2":"2 53449  97.5451 275.0008 0001087 142.3007 217.8333 15.74202668211195","mean_motion":15.74202668,"eccentricity":0.0001087,"inclination_deg":97.5451,"raan_deg":275.0008,"arg_perigee_deg":142.3007,"mean_anomaly_deg":217.8333,"bstar":0.00068616,"rev_number":21119,"period_min":91.474879904091,"perigee_km":346.17002820907,"apogee_km":347.63205147893,"semimajor_km":6725.038039844,"source":"CELESTRAK","updated_at":"2026-05-25T13:37:58.192276Z"}}}